User: anonymous   Login
Location: Unspecified
(0.0000°N, 0.0000°E)
Time: 22:09:55
(UTC+01:00)
Language:

ATLAS 2AS CENTAUR R/B - Orbit

View from above orbital plane
View from above orbital plane
View from above satellite
View from above satellite

Ground track
Ground track

The orbit data is extracted from the following two-line orbital elements,

1 28096U 03054B   15054.81036555 0.00000000  00000-0  00000-0 0    08
2 28096  63.6680  31.9391 0257000 289.2298  70.7702 13.40772728    00
Epoch (UTC): 23 February 2015 19:26:55
Eccentricity: 0.0257000
inclination: 63.6680°
perigee height: 914 km
apogee height: 1299 km
right ascension of ascending node: 31.9391°
argument of perigee: 289.2298°
revolutions per day: 13.40772728
mean anomaly at epoch: 70.7702°
orbit number at epoch: 0

The dashed part of the orbit path shows where the satellite is in the earth's shadow,  

DLR